Starlink 11402

operational
NORAD ID: 61874 Int'l Des: 2024-204 Owner: SPXS Country: US Constellation: starlink
LEOCIRCULAR

Über Starlink 11402

Beschreibung wird geladen...

Live-Position

3D-Globus wird geladen...

Nächste Überflüge

Höhenverlauf

Altitude vs Time

uPlot chart will show altitude changes over time

Zweizeiliger Elementsatz

1 61874U 24204A 25305.61025734 -.00001433 00000-0 -69693-5 0 9992
2 61874 53.1595 268.0126 0001627 91.5487 268.5718 15.69700972 57387
Epoch: 1. Nov. 2025 • Age: 8 hours

Aktueller Status

Höhe 359.5 km
Geschwindigkeit 7.70 km/s
Subsatellitenpunkt 13.54°N, 49.82°E
Startdatum 9. Nov. 2024
Alter 0.9 years
Typ internet

Technische Details

Klassifizierung Payload
Masse 960.00 kg
Trockenmasse 910.00 kg
Gesamtmasse 960.00 kg
Länge 0.30 m
Durchmesser 4.10 m
Spannweite 29.00 m
Form Box + pan
Hersteller SPXS
Bus-Typ Starlink V2MD
Phasenstatus In Orbit
Besitzer/Staat SPXS/US

Große Konstellationen

Loading constellations...